sat.trackr.live / text

‹ back to catalog

STARLINK-34896

NORAD 66288 · 2025-247Z

PAYLOAD ACTIVE UNKNOWN

§ Identity

Operator
Country
US
Launch date
2025-10-31
Launch site
AFWTR
Launch vehicle
Mass (kg)
RCS (m²)

Purposes: comms

External: N2YO · Heavens-Above · Gunter

§ Orbital elements

Epoch: 2026-09-20T13:30:35.931168Z

Period
93.85 min
Inclination
53.1587°
Eccentricity
0.0000996
Mean motion
15.34412003 rev/d
Perigee alt
462.0 km
Apogee alt
463.3 km
Semi-major
6,840.8 km
B*
7.6435e-4
RAAN
1.7338°
Arg perigee
87.3413°
Mean anomaly
272.7703°
Rev number
5,093

§ Raw data

STARLINK-348961 66288U 25247Z   26263.56291587  .00025546  00000+0  76435-3 0  99912 66288  53.1587   1.7338 0000996  87.3413 272.7703 15.34412003 50931

JSON: /api/v1/satellites/66288 · /tle

For live sub-satellite position, see the globe view (requires WebGL).

§ Visibility from observer

Set your observer location to see the next 7 days of passes ≥ 10°. The values pass through the URL so the page stays shareable.

No JS? Fill the form by hand. The geolocation button needs JavaScript.